Location: Newark
(25.0000°N, 73.5000°E)
Time: 22:28:23
(UTC+00:00)

RS-15 - Pass Details

Date: 28 February 2020
Orbit: 1898 x 2146 km, 64.8° (Epoch: 06 April)

Event Time Altitude Azimuth Distance (km) Brightness Sun altitude
Rises 23:17:22 0° 337° (NNW) 5,341 10.2 -30.7°
Reaches altitude 10° 23:20:39 10° 340° (NNW) 4,365 9.7 -30.0°
Maximum altitude 23:31:54 71° 64° (ENE) 2,104 8.2 -27.4°
Drops below altitude 10° 23:43:39 10° 147° (SSE) 4,554 10.3 -24.8°
Sets 23:47:07 0° 149° (SSE) 5,581 10.8 -24.0°
